| time (UTC) | temp F | wind direction | speed knots | gust knots | rain 1hr in | rain 24hr in | rain mn in | humidity % | barometer mb |
| 20260506051004 | 45 | 0 | 0.9 | 0.9 | 0.00 | 0.00 | 0.00 | 100 | 1015.2 |
| 20260506050504 | 45 | 0 | 0.9 | 1.7 | 0.00 | 0.00 | 0.00 | 100 | 1015.1 |
| 20260506042504 | 47 | 4 | 3.5 | 6.1 | 0.00 | 0.00 | 0.00 | 100 | 1014.8 |
| 20260506041504 | 47 | 357 | 3.5 | 4.3 | 0.00 | 0.00 | 0.00 | 100 | 1014.7 |
| 20260506040006 | 48 | 11 | 4.3 | 7.8 | 0.00 | 0.00 | 0.00 | 100 | 1014.6 |
| 20260506035005 | 48 | 355 | 4.3 | 8.7 | 0.00 | 0.00 | 0.00 | 100 | 1014.7 |
| 20260506033006 | 49 | 4 | 4.3 | 8.7 | 0.00 | 0.00 | 0.00 | 100 | 1014.7 |
| 20260506032506 | 49 | 356 | 5.2 | 10.4 | 0.00 | 0.00 | 0.00 | 100 | 1014.7 |
| 20260506032006 | 49 | 352 | 5.2 | 10.4 | 0.00 | 0.00 | 0.00 | 100 | 1014.6 |
| 20260506031506 | 49 | 350 | 6.1 | 8.7 | 0.00 | 0.00 | 0.00 | 100 | 1014.5 |
| 20260506030505 | 49 | 1 | 5.2 | 10.4 | 0.00 | 0.00 | 0.00 | 100 | 1014.4 |
| 20260506030005 | 50 | 352 | 5.2 | 8.7 | 0.00 | 0.00 | 0.00 | 100 | 1014.4 |
| 20260506025506 | 50 | 348 | 6.1 | 10.4 | 0.00 | 0.00 | 0.00 | 100 | 1014.4 |
| 20260506024505 | 50 | 350 | 8.7 | 11.3 | 0.00 | 0.00 | 0.00 | 100 | 1014.2 |
| 20260506023506 | 51 | 347 | 7.0 | 11.3 | 0.00 | 0.00 | 0.00 | 100 | 1013.9 |
| 20260506023006 | 51 | 352 | 7.0 | 11.3 | 0.00 | 0.00 | 0.00 | 100 | 1013.9 |
| 20260506022505 | 51 | 351 | 9.6 | 13.9 | 0.00 | 0.00 | 0.00 | 100 | 1013.7 |
| 20260506021506 | 51 | 349 | 7.8 | 13.0 | 0.00 | 0.00 | 0.00 | 100 | 1013.5 |
| 20260506021006 | 51 | 342 | 8.7 | 13.0 | 0.00 | 0.00 | 0.00 | 100 | 1013.5 |
| 20260506020506 | 52 | 349 | 7.8 | 10.4 | 0.00 | 0.00 | 0.00 | 100 | 1013.4 |
| 20260506014505 | 51 | 340 | 4.3 | 7.8 | 0.00 | 0.00 | 0.00 | 100 | 1012.9 |
| 20260506013005 | 52 | 11 | 4.3 | 6.1 | 0.00 | 0.00 | 0.00 | 100 | 1012.5 |
| 20260506012505 | 52 | 7 | 4.3 | 5.2 | 0.00 | 0.00 | 0.00 | 100 | 1012.4 |
| 20260506012005 | 53 | 4 | 4.3 | 5.2 | 0.00 | 0.00 | 0.00 | 100 | 1012.4 |
| 20260506011505 | 53 | 8 | 4.3 | 6.1 | 0.00 | 0.00 | 0.00 | 100 | 1012.3 |
| 20260506011006 | 53 | 0 | 4.3 | 6.1 | 0.00 | 0.00 | 0.00 | 100 | 1012.4 |
| 20260506003505 | 56 | 327 | 6.1 | 11.3 | 0.00 | 0.00 | 0.00 | 100 | 1011.8 |
| 20260506003006 | 56 | 323 | 7.8 | 10.4 | 0.00 | 0.00 | 0.00 | 100 | 1011.7 |
| 20260506002505 | 56 | 325 | 8.7 | 12.2 | 0.00 | 0.00 | 0.00 | 100 | 1011.6 |
| 20260506001505 | 57 | 310 | 4.3 | 7.0 | 0.00 | 0.00 | 0.00 | 100 | 1011.6 |
| 20260506001005 | 57 | 303 | 5.2 | 7.8 | 0.00 | 0.00 | 0.00 | 100 | 1011.5 |
| 20260506000505 | 57 | 302 | 7.8 | 11.3 | 0.00 | 0.00 | 0.00 | 100 | 1011.5 |
| 20260505235505 | 57 | 319 | 7.8 | 11.3 | 0.00 | 0.00 | 0.00 | 100 | 1011.5 |
| 20260505235005 | 57 | 299 | 8.7 | 12.2 | 0.00 | 0.00 | 0.00 | 100 | 1011.5 |
| 20260505233005 | 58 | 312 | 6.1 | 8.7 | 0.00 | 0.00 | 0.00 | 100 | 1011.3 |
| 20260505232505 | 58 | 295 | 5.2 | 10.4 | 0.00 | 0.00 | 0.00 | 100 | 1011.4 |
| 20260505231505 | 58 | 286 | 5.2 | 7.8 | 0.00 | 0.00 | 0.00 | 100 | 1011.3 |
| 20260505231005 | 58 | 269 | 6.1 | 8.7 | 0.00 | 0.00 | 0.00 | 100 | 1011.3 |
| 20260505230005 | 58 | 276 | 5.2 | 8.7 | 0.00 | 0.00 | 0.00 | 100 | 1011.3 |
| 20260505225005 | 59 | 273 | 6.1 | 7.8 | 0.00 | 0.00 | 0.00 | 100 | 1011.5 |
| 20260505224504 | 59 | 293 | 5.2 | 7.8 | 0.00 | 0.00 | 0.00 | 100 | 1011.4 |
| 20260505223005 | 58 | 304 | 5.2 | 7.8 | 0.00 | 0.00 | 0.00 | 100 | 1011.4 |
| 20260505222505 | 58 | 284 | 5.2 | 7.0 | 0.00 | 0.00 | 0.00 | 100 | 1011.4 |
| 20260505221505 | 58 | 264 | 3.5 | 7.0 | 0.00 | 0.00 | 0.00 | 100 | 1011.5 |
| 20260505220505 | 58 | 307 | 4.3 | 6.1 | 0.00 | 0.00 | 0.00 | 100 | 1011.6 |
| 20260505215504 | 58 | 313 | 5.2 | 10.4 | 0.00 | 0.00 | 0.00 | 100 | 1011.7 |
| 20260505215005 | 58 | 270 | 8.7 | 11.3 | 0.00 | 0.00 | 0.00 | 100 | 1011.6 |
| 20260505213505 | 59 | 270 | 8.7 | 12.2 | 0.00 | 0.00 | 0.00 | 100 | 1011.8 |
| 20260505211005 | 59 | 276 | 12.2 | 17.4 | 0.00 | 0.00 | 0.00 | 100 | 1011.8 |
| 20260505205505 | 59 | 276 | 11.3 | 13.0 | 0.00 | 0.00 | 0.00 | 100 | 1012.0 |
| 20260505204005 | 58 | 305 | 8.7 | 14.8 | 0.00 | 0.00 | 0.00 | 100 | 1012.3 |
| 20260505202505 | 58 | 280 | 10.4 | 15.6 | 0.00 | 0.00 | 0.00 | 100 | 1012.0 |
| 20260505202005 | 59 | 286 | 7.8 | 13.0 | 0.00 | 0.00 | 0.00 | 100 | 1012.1 |
| 20260505201505 | 59 | 280 | 12.2 | 15.6 | 0.00 | 0.00 | 0.00 | 100 | 1012.2 |
| 20260505200005 | 59 | 276 | 9.6 | 13.9 | 0.00 | 0.00 | 0.00 | 100 | 1012.3 |
| 20260505195505 | 59 | 296 | 10.4 | 14.8 | 0.00 | 0.00 | 0.00 | 100 | 1012.4 |
| 20260505195004 | 59 | 255 | 11.3 | 17.4 | 0.00 | 0.00 | 0.00 | 100 | 1012.4 |
| 20260505194005 | 58 | 288 | 8.7 | 12.2 | 0.00 | 0.00 | 0.00 | 100 | 1012.5 |
| 20260505192505 | 58 | 264 | 6.1 | 10.4 | 0.00 | 0.00 | 0.00 | 100 | 1012.6 |
| 20260505192005 | 57 | 280 | 7.8 | 10.4 | 0.00 | 0.00 | 0.00 | 100 | 1012.6 |
| 20260505191505 | 57 | 259 | 7.8 | 10.4 | 0.00 | 0.00 | 0.00 | 100 | 1012.7 |
| 20260505190505 | 57 | 275 | 7.8 | 11.3 | 0.00 | 0.00 | 0.00 | 100 | 1013.2 |
| 20260505190006 | 57 | 250 | 6.1 | 10.4 | 0.00 | 0.00 | 0.00 | 100 | 1013.3 |
| 20260505185505 | 57 | 277 | 10.4 | 13.9 | 0.00 | 0.00 | 0.00 | 100 | 1013.2 |
| 20260505185005 | 57 | 252 | 9.6 | 17.4 | 0.00 | 0.00 | 0.00 | 100 | 1013.3 |
| 20260505184005 | 57 | 237 | 7.8 | 11.3 | 0.00 | 0.00 | 0.00 | 100 | 1013.3 |
| 20260505183505 | 58 | 297 | 7.8 | 10.4 | 0.00 | 0.00 | 0.00 | 100 | 1013.2 |
| 20260505182504 | 58 | 294 | 8.7 | 11.3 | 0.00 | 0.00 | 0.00 | 100 | 1013.3 |
| 20260505182005 | 57 | 266 | 8.7 | 13.9 | 0.00 | 0.00 | 0.00 | 100 | 1013.2 |
| 20260505181005 | 57 | 260 | 11.3 | 13.9 | 0.00 | 0.00 | 0.00 | 100 | 1013.4 |
| 20260505174505 | 56 | 229 | 8.7 | 12.2 | 0.00 | 0.00 | 0.00 | 100 | 1013.5 |
| 20260505173505 | 56 | 309 | 6.1 | 11.3 | 0.00 | 0.00 | 0.00 | 100 | 1013.5 |
| 20260505172505 | 56 | 273 | 10.4 | 13.0 | 0.00 | 0.00 | 0.00 | 100 | 1013.5 |
| 20260505172004 | 55 | 314 | 7.8 | 10.4 | 0.00 | 0.00 | 0.00 | 100 | 1013.4 |
| 20260505171505 | 55 | 269 | 3.5 | 6.1 | 0.00 | 0.00 | 0.00 | 100 | 1013.5 |
| 20260505170005 | 54 | 286 | 5.2 | 7.8 | 0.00 | 0.00 | 0.00 | 100 | 1013.4 |
| 20260505163004 | 53 | 333 | 2.6 | 8.7 | 0.00 | 0.00 | 0.00 | 100 | 1013.0 |
| 20260505162005 | 54 | 303 | 7.8 | 11.3 | 0.00 | 0.00 | 0.00 | 100 | 1013.4 |
| 20260505160505 | 53 | 298 | 2.6 | 7.0 | 0.00 | 0.00 | 0.00 | 100 | 1013.1 |
| 20260505151505 | 52 | 349 | 8.7 | 11.3 | 0.00 | 0.00 | 0.00 | 100 | 1012.7 |
| 20260505151005 | 53 | 354 | 6.1 | 10.4 | 0.00 | 0.00 | 0.00 | 100 | 1012.7 |
| 20260505124504 | 47 | 291 | 1.7 | 2.6 | 0.00 | 0.00 | 0.00 | 100 | 1013.3 |
| 20260505124005 | 47 | 255 | 1.7 | 2.6 | 0.00 | 0.00 | 0.00 | 100 | 1013.4 |
| 20260505122505 | 44 | 263 | 0.9 | 1.7 | 0.00 | 0.00 | 0.00 | 100 | 1013.4 |
| 20260505121504 | 44 | 282 | 0.9 | 1.7 | 0.00 | 0.00 | 0.00 | 100 | 1013.2 |
| 20260505121005 | 45 | 282 | 0.9 | 1.7 | 0.00 | 0.00 | 0.00 | 100 | 1013.1 |
| 20260505120504 | 45 | 288 | 0.9 | 0.9 | 0.00 | 0.00 | 0.00 | 100 | 1013.1 |
| 20260505114504 | 43 | 318 | 0.9 | 1.7 | 0.00 | 0.00 | 0.00 | 100 | 1012.6 |
| 20260505114004 | 43 | 318 | 1.7 | 2.6 | 0.00 | 0.00 | 0.00 | 100 | 1012.5 |
| 20260505113004 | 44 | 261 | 1.7 | 2.6 | 0.00 | 0.00 | 0.00 | 100 | 1012.4 |
| 20260505112504 | 44 | 233 | 0.9 | 1.7 | 0.00 | 0.00 | 0.00 | 100 | 1012.4 |
| 20260505112004 | 44 | 217 | 2.6 | 2.6 | 0.00 | 0.00 | 0.00 | 100 | 1012.4 |
| 20260505111505 | 44 | 225 | 1.7 | 2.6 | 0.00 | 0.00 | 0.00 | 100 | 1012.2 |
| 20260505100504 | 47 | 304 | 2.6 | 4.3 | 0.00 | 0.00 | 0.00 | 100 | 1010.9 |
| 20260505095504 | 47 | 319 | 2.6 | 4.3 | 0.00 | 0.00 | 0.00 | 100 | 1010.8 |
| 20260505093004 | 48 | 327 | 2.6 | 2.6 | 0.00 | 0.00 | 0.00 | 100 | 1010.8 |
| 20260505092504 | 48 | 347 | 1.7 | 2.6 | 0.00 | 0.00 | 0.00 | 100 | 1010.8 |
| 20260505091505 | 48 | 352 | 3.5 | 7.0 | 0.00 | 0.00 | 0.00 | 100 | 1010.8 |
| 20260505090503 | 48 | 302 | 4.3 | 6.1 | 0.00 | 0.00 | 0.00 | 100 | 1011.3 |
| 20260505090004 | 48 | 287 | 4.3 | 7.8 | 0.00 | 0.00 | 0.00 | 100 | 1011.3 |
| 20260505085004 | 48 | 324 | 4.3 | 8.7 | 0.00 | 0.00 | 0.00 | 100 | 1010.7 |
| 20260505084503 | 48 | 344 | 7.0 | 10.4 | 0.00 | 0.00 | 0.00 | 100 | 1010.0 |
| 20260505083504 | 48 | 329 | 5.2 | 10.4 | 0.00 | 0.00 | 0.00 | 100 | 1010.2 |
| 20260505083005 | 48 | 338 | 3.5 | 7.0 | 0.00 | 0.00 | 0.00 | 100 | 1010.0 |
| 20260505082504 | 48 | 347 | 2.6 | 7.8 | 0.00 | 0.00 | 0.00 | 100 | 1010.2 |
| 20260505082005 | 48 | 3 | 5.2 | 8.7 | 0.00 | 0.00 | 0.00 | 100 | 1009.9 |
| 20260505081504 | 48 | 345 | 6.1 | 8.7 | 0.00 | 0.00 | 0.00 | 100 | 1009.8 |
| 20260505081004 | 48 | 326 | 7.8 | 11.3 | 0.00 | 0.00 | 0.00 | 100 | 1010.1 |
| 20260505075004 | 50 | 356 | 8.7 | 14.8 | 0.00 | 0.00 | 0.00 | 100 | 1009.1 |
| 20260505074504 | 50 | 331 | 10.4 | 17.4 | 0.00 | 0.00 | 0.00 | 100 | 1009.8 |
| 20260505074004 | 50 | 304 | 13.9 | 20.9 | 0.00 | 0.00 | 0.00 | 100 | 1010.0 |
| 20260505073504 | 50 | 340 | 10.4 | 17.4 | 0.00 | 0.00 | 0.00 | 100 | 1009.4 |
| 20260505072504 | 50 | 326 | 10.4 | 14.8 | 0.00 | 0.00 | 0.00 | 100 | 1009.4 |
| 20260505072004 | 50 | 347 | 7.8 | 13.9 | 0.00 | 0.00 | 0.00 | 100 | 1009.1 |
| 20260505071503 | 50 | 321 | 10.4 | 14.8 | 0.00 | 0.00 | 0.00 | 100 | 1009.3 |
| 20260505071004 | 50 | 332 | 6.1 | 14.8 | 0.00 | 0.00 | 0.00 | 100 | 1009.2 |
| 20260505065504 | 50 | 317 | 9.6 | 13.0 | 0.00 | 0.00 | 0.00 | 100 | 1008.8 |
| 20260505061504 | 51 | 328 | 12.2 | 20.9 | 0.00 | 0.00 | 0.00 | 100 | 1007.4 |
| 20260505061004 | 51 | 335 | 17.4 | 21.7 | 0.00 | 0.00 | 0.00 | 100 | 1007.2 |
| 20260505060504 | 51 | 338 | 14.8 | 22.6 | 0.00 | 0.00 | 0.00 | 100 | 1007.5 |
| 20260505060004 | 51 | 316 | 14.8 | 20.0 | 0.00 | 0.00 | 0.00 | 100 | 1007.8 |
| 20260505055503 | 51 | 326 | 17.4 | 25.2 | 0.00 | 0.00 | 0.00 | 100 | 1007.8 |
| 20260505054504 | 52 | 312 | 11.3 | 18.2 | 0.00 | 0.00 | 0.00 | 100 | 1007.7 |